Regional Weather Roundup
Issued by NWS New Orleans/Baton Rouge, LA

Home | Current Version | Previous Version | Text Only | Print | Product List | Glossary On
Versions: 1 2 3 4 5 6 7 8 9 10 11 12 13 14 15 16 17 18 19 20 21 22 23 24 25 26 27 28 29 30 31 32 33 34 35 36 37 38 39 40 41 42 43 44 45 46 47 48 49 50
000
ASUS44 KLIX 130910
RWRLIX
NEW ORLEANS REGIONAL WEATHER ROUNDUP
NATIONAL WEATHER SERVICE NEW ORLEANS LA
400 AM CDT SUN JUL 13 2014

NOTE: "FAIR" INDICATES FEW OR NO CLOUDS BELOW 12,000 FEET WITH NO
      SIGNIFICANT WEATHER AND/OR OBSTRUCTIONS TO VISIBILITY.
      SKY/WX - SKY CONDITION AND SIGNIFICANT WEATHER.
      TMP - AIR TEMPERATURE.     DP    - DEWPOINT TEMPERATURE.
      RH  - RELATIVE HUMIDITY.   PRES  - PRESSURE.
      HI  - HEAT INDEX.          WCI   - WIND CHILL INDEX.

*  THESE STATIONS ARE NOT NWS OR FAA STATIONS AND ARE NOT UNDER
   NWS QUALITY CONTROL.

LAZ038-040-048-061>063-065>067-069-131000-
SOUTHEAST LOUISIANA

CITY           SKY/WX    TMP DP  RH WIND       PRES   REMARKS
N.O. AUDUBON     N/A     79  76  91 MISG        N/A
N.O. INTL ARPT PTCLDY    77  74  90 NW3       30.05R
N.O. LAKEFRONT CLEAR     82  75  79 W5        30.05R
N.O. DOWNTOWN*   N/A     82  72  69 W3        30.05R
SLIDELL        PTCLDY    73  71  93 CALM      30.04S
BATON ROUGE    CLEAR     75  73  93 NW3       30.05S
BOOTHVILLE     CLEAR     80  77  90 SE3       30.05R
BELLE CHASSE     N/A     74  71  91 CALM      30.04R
BOGALUSA*        N/A     74  71  89 CALM      30.06S
GALLIANO*      NOT AVBL
NEW ROADS*       N/A     75  74  98 CALM      30.05S
GONZALES*        N/A     75  75 100 W3        30.04S
HAMMOND*       CLEAR     75  72  88 CALM      30.06S
HOUMA*         CLEAR     74  71  88 CALM      30.04S
PORT FOURCHON* PTSUNNY   84  75  74 SW6       30.05S

$$

MSZ070-080>082-131000-
SOUTHERN MISSISSIPPI

CITY           SKY/WX    TMP DP  RH WIND       PRES   REMARKS
MCCOMB         CLEAR     74  72  93 CALM      30.06S
GULFPORT       CLEAR     78  73  84 CALM      30.04S
BILOXI         CLEAR     76  73  90 NE5       30.05S
PASCAGOULA     PTCLDY    73  72  96 CALM      30.05S FOG

$$

COASTAL OBSERVATIONS
LAKE AND NEARSHORE STATIONS

STATION/POSITION TIME  TEMP    WIND        PRES    WAVE
                       AIR SEA DIR/SP/G            HT/PER
                 (UTC) (F)     (DEG/KT/KT) (MB)    (FT/S)
PASCAGOULA       0900   80      50/  2/  3 1016.9
WAVELAND YACHT   0900   79     320/  2/  3 1016.8
GRAND ISLE       0900   85 90  260/  3/  4 1017.6
SOUTHWEST PASS   0900   83 85  200/  5/  6 1017.6
NEW CANAL        0900   82 85  310/  2/  4 1017.9
SHELL BEACH      0900   81 84  130/  2/  3 1017.2

OFFSHORE STATIONS

STATION/POSITION TIME  TEMP    WIND        PRES    WAVE
                       AIR SEA DIR/SP/G            HT/PER
                 (UTC) (F)     (DEG/KT/KT) (MB)    (FT/S)
64 S DAUPHIN ISL 0748   82 86  170/  6/ 10 1017.9

$$



USA.gov is the U.S. government's official web portal to all federal, state and local government web resources and services.